This demonstration page uses our WeatherBlox Daily Observations layout. Learn more.

Left ArrowRight Arrow

41.55636, -103.73856

Hourly Observations for March 10, 2021

Temp ( °F °C ) Dew Point ( °F °C ) Humidity (%) Winds ( mph kmh ) Pressure ( in mb ) Visibility ( mi km ) Precip ( " mm )
12:58 am 00:58 Mostly Cloudy with Light Snow 31 -0.5 29 -1.4 94 94 NE 13 20 29.68 1005 1 2 0.00 0.00
1:58 am 01:58 Cloudy with Light Snow 30 -1 29 -1.8 94 94 NE 17 28 29.70 1006 10 16 0.00 0.00
2:58 am 02:58 Cloudy with Light Snow 29 -1.4 28 -2.4 93 93 NE 12 19 29.69 1005 7 11 0.01 0.25
3:58 am 03:58 Mostly Cloudy with Light Snow 29 -1.9 27 -2.9 93 93 NE 12 19 29.69 1005 2 3 0.02 0.51
4:58 am 04:58 Cloudy with Snow 28 -2.4 26 -3.4 93 93 NNE 8 13 29.73 1007 3 5 0.01 0.25
5:58 am 05:58 Cloudy with Light Snow 28 -2.4 26 -3.4 93 93 N 8 13 29.75 1007 1 2 0.02 0.51
6:58 am 06:58 Cloudy with Light Snow 27 -2.9 25 -3.7 94 94 N 8 13 29.78 1008 0 0 0.02 0.51
7:58 am 07:58 Mostly Cloudy with Light Snow Showers 26 -3.2 25 -4.1 94 94 N 9 15 29.79 1009 1 2 0.01 0.25
8:58 am 08:58 Mostly Cloudy with Light Snow Showers 26 -3.3 24 -4.3 93 93 NNE 12 19 29.79 1009 0 0 0.01 0.25
9:58 am 09:58 Cloudy 26 -3.4 24 -4.4 93 93 N 12 19 29.82 1010 10 16 0.00 0.00
10:58 am 10:58 Cloudy with Mist and Fog 27 -3 25 -4 93 93 N 13 20 29.83 1010 2 3 0.04 1.02
11:58 am 11:58 Cloudy with Light Snow Showers 26 -3.4 24 -4.4 93 93 NNE 13 20 29.85 1011 10 16 0.01 0.25
12:58 pm 12:58 Mostly Cloudy 27 -2.6 24 -4.3 88 88 N 9 15 29.87 1012 10 16 0.00 0.00
1:58 pm 13:58 Mostly Cloudy 28 -2.4 24 -4.2 88 88 N 10 17 29.88 1012 10 16 0.00 0.00
2:58 pm 14:58 Cloudy 28 -2.3 25 -4.1 88 88 NNE 8 13 29.92 1013 10 16 0.00 0.00
3:58 pm 15:58 Mostly Cloudy 28 -2.3 24 -4.6 84 84 N 7 11 29.95 1014 10 16 0.00 0.00
4:58 pm 16:58 Cloudy 28 -2.5 24 -4.4 87 87 N 5 7 29.98 1015 10 16 0.00 0.00
5:58 pm 17:58 Mostly Cloudy 27 -2.9 23 -4.8 87 87 NNW 10 17 30.03 1017 10 16 0.00 0.00
6:58 pm 18:58 Mostly Clear 22 -5.6 20 -6.7 92 92 W 7 11 30.09 1019 10 16 0.00 0.00
7:58 pm 19:58 Clear 21 -6.3 19 -7.5 91 91 WNW 12 19 30.11 1020 10 16 0.00 0.00
8:58 pm 20:58 Clear 21 -6.2 18 -7.6 90 90 WNW 9 15 30.14 1021 10 16 0.00 0.00
9:58 pm 21:58 Clear 20 -6.7 18 -8 91 91 WNW 13 20 30.14 1021 10 16 0.00 0.00
10:58 pm 22:58 Clear 19 -7.2 16 -8.7 89 89 W 9 15 30.16 1022 10 16 0.00 0.00
11:58 pm 23:58 Clear 17 -8.2 14 -9.8 88 88 WNW 5 7 30.17 1022 10 16 0.00 0.00

Powered by AerisWeather